Satellite: METEOR-M Catalog number: 35865 Epoch time: 11034.72716586 Element set: 67 Inclination: 098.7262 deg RA of node: 091.4727 deg Eccentricity: 0.0003318 Arg of perigee: 059.2730 deg Mean anomaly: 300.8728 deg Mean motion: 14.21834242 rev/day Decay rate: 1.76e-06 rev/day^2 Epoch rev: 7162 Checksum: 295
Satellite: RS-38 Catalog number: 35869 Epoch time: 11034.74317497 Element set: 81 Inclination: 098.7246 deg RA of node: 091.5302 deg Eccentricity: 0.0005481 Arg of perigee: 059.4591 deg Mean anomaly: 300.7100 deg Mean motion: 14.21999183 rev/day Decay rate: 1.77e-06 rev/day^2 Epoch rev: 7163 Checksum: 309
/EX
participants (1)
-
Ray Hoad